| time (UTC) | temp C | wind direction | speed KPH | gust KPH | rain 1hr cm | rain 24hr cm | rain mn cm | humidity % | barometer mb |
| 20260503013040 | 12 | 323 | 3.2 | 6.4 | 0.00 | 0.00 | 0.00 | 61 | 1024.2 |
| 20260503011551 | 13 | 348 | 3.2 | 6.4 | 0.00 | 0.00 | 0.00 | 61 | 1024.6 |
| 20260503010044 | 12 | 11 | 1.6 | 3.2 | 0.00 | 0.00 | 0.00 | 65 | 1024.6 |
| 20260503004546 | 11 | 0 | 0.0 | 3.2 | 0.00 | 0.00 | 0.00 | 66 | 1024.7 |
| 20260503003056 | 11 | 0 | 0.0 | 3.2 | 0.00 | 0.00 | 0.00 | 67 | 1024.8 |
| 20260503001550 | 11 | 0 | 0.0 | 0.0 | 0.00 | 0.00 | 0.00 | 65 | 1025.0 |
| 20260502234602 | 12 | 0 | 0.0 | 0.0 | 0.00 | 0.00 | 0.00 | 62 | 1025.1 |
| 20260502233059 | 13 | 0 | 0.0 | 3.2 | 0.00 | 0.00 | 0.00 | 58 | 1025.0 |
| 20260502231602 | 14 | 0 | 0.0 | 3.2 | 0.00 | 0.00 | 0.00 | 57 | 1025.1 |
| 20260502230051 | 15 | 79 | 0.0 | 1.6 | 0.00 | 0.00 | 0.00 | 54 | 1025.1 |
| 20260502224550 | 15 | 0 | 0.0 | 3.2 | 0.00 | 0.00 | 0.00 | 53 | 1025.1 |
| 20260502223048 | 15 | 352 | 0.0 | 3.2 | 0.00 | 0.00 | 0.00 | 53 | 1025.1 |
| 20260502221559 | 15 | 0 | 1.6 | 3.2 | 0.00 | 0.00 | 0.00 | 54 | 1025.0 |
| 20260502220048 | 15 | 0 | 0.0 | 0.0 | 0.00 | 0.00 | 0.00 | 52 | 1025.1 |
| 20260502214609 | 15 | 0 | 0.0 | 3.2 | 0.00 | 0.00 | 0.00 | 53 | 1025.2 |
| 20260502213052 | 16 | 87 | 0.0 | 3.2 | 0.00 | 0.00 | 0.00 | 50 | 1025.5 |
| 20260502211548 | 16 | 0 | 0.0 | 3.2 | 0.00 | 0.00 | 0.00 | 49 | 1025.3 |
| 20260502210047 | 16 | 65 | 0.0 | 3.2 | 0.00 | 0.00 | 0.00 | 49 | 1025.3 |
| 20260502204550 | 17 | 329 | 0.0 | 4.8 | 0.00 | 0.00 | 0.00 | 47 | 1025.3 |
| 20260502203054 | 17 | 10 | 1.6 | 12.9 | 0.00 | 0.00 | 0.00 | 47 | 1025.1 |
| 20260502201546 | 17 | 0 | 1.6 | 3.2 | 0.00 | 0.00 | 0.00 | 47 | 1024.9 |
| 20260502200046 | 18 | 27 | 0.0 | 4.8 | 0.00 | 0.00 | 0.00 | 45 | 1024.8 |
| 20260502194545 | 18 | 340 | 6.4 | 14.5 | 0.00 | 0.00 | 0.00 | 44 | 1024.7 |
| 20260502193038 | 17 | 317 | 1.6 | 8.0 | 0.00 | 0.00 | 0.00 | 49 | 1024.5 |
| 20260502191543 | 15 | 0 | 0.0 | 3.2 | 0.00 | 0.00 | 0.00 | 52 | 1024.5 |
| 20260502190049 | 16 | 0 | 0.0 | 3.2 | 0.00 | 0.00 | 0.00 | 50 | 1024.4 |
| 20260502184542 | 17 | 0 | 0.0 | 3.2 | 0.00 | 0.00 | 0.00 | 47 | 1024.2 |
| 20260502183041 | 17 | 324 | 0.0 | 4.8 | 0.00 | 0.00 | 0.00 | 46 | 1024.1 |
| 20260502181545 | 17 | 18 | 0.0 | 3.2 | 0.00 | 0.00 | 0.00 | 44 | 1024.0 |
| 20260502163038 | 20 | 352 | 0.0 | 6.4 | 0.00 | 0.00 | 0.00 | 36 | 1023.1 |
| 20260502161539 | 20 | 0 | 0.0 | 3.2 | 0.00 | 0.00 | 0.00 | 37 | 1022.8 |
| 20260502151553 | 23 | 228 | 8.0 | 12.9 | 0.00 | 0.00 | 0.00 | 29 | 1022.3 |
| 20260502123039 | 25 | 195 | 3.2 | 8.0 | 0.00 | 0.00 | 0.00 | 23 | 1021.4 |
| 20260502121549 | 25 | 154 | 4.8 | 12.9 | 0.00 | 0.00 | 0.00 | 21 | 1021.4 |
| 20260502114544 | 25 | 276 | 3.2 | 14.5 | 0.00 | 0.00 | 0.00 | 25 | 1021.5 |
| 20260502113048 | 24 | 227 | 3.2 | 12.9 | 0.00 | 0.00 | 0.00 | 24 | 1021.6 |
| 20260502111551 | 24 | 257 | 4.8 | 16.1 | 0.00 | 0.00 | 0.00 | 25 | 1021.9 |
| 20260502110048 | 24 | 227 | 9.7 | 17.7 | 0.00 | 0.00 | 0.00 | 23 | 1022.2 |
| 20260502104553 | 23 | 299 | 4.8 | 12.9 | 0.00 | 0.00 | 0.00 | 23 | 1022.2 |
| 20260502103046 | 23 | 226 | 6.4 | 14.5 | 0.00 | 0.00 | 0.00 | 26 | 1022.4 |
| 20260502101540 | 23 | 167 | 8.0 | 12.9 | 0.00 | 0.00 | 0.00 | 28 | 1022.5 |
| 20260502100109 | 23 | 217 | 4.8 | 17.7 | 0.00 | 0.00 | 0.00 | 28 | 1022.5 |
| 20260502070046 | 18 | 13 | 6.4 | 16.1 | 0.00 | 0.00 | 0.00 | 40 | 1023.3 |
| 20260502064541 | 17 | 14 | 4.8 | 12.9 | 0.00 | 0.00 | 0.00 | 45 | 1023.1 |
| 20260502063055 | 15 | 352 | 1.6 | 6.4 | 0.00 | 0.00 | 0.00 | 49 | 1023.1 |
| 20260502061542 | 15 | 13 | 0.0 | 6.4 | 0.00 | 0.00 | 0.00 | 52 | 1023.0 |
| 20260502060050 | 15 | 50 | 3.2 | 12.9 | 0.00 | 0.00 | 0.00 | 52 | 1022.9 |
| 20260502054546 | 12 | 345 | 0.0 | 3.2 | 0.00 | 0.00 | 0.00 | 58 | 1023.0 |
| 20260502053045 | 12 | 0 | 1.6 | 3.2 | 0.00 | 0.00 | 0.00 | 60 | 1022.6 |
| 20260502051607 | 11 | 0 | 0.0 | 4.8 | 0.00 | 0.00 | 0.00 | 61 | 1022.6 |
| 20260502050047 | 10 | 0 | 0.0 | 3.2 | 0.00 | 0.00 | 0.00 | 63 | 1022.5 |
| 20260502044541 | 10 | 0 | 0.0 | 3.2 | 0.00 | 0.00 | 0.00 | 64 | 1022.5 |
| 20260502043050 | 11 | 0 | 0.0 | 3.2 | 0.00 | 0.00 | 0.00 | 63 | 1022.4 |
| 20260502041545 | 11 | 257 | 0.0 | 3.2 | 0.00 | 0.00 | 0.00 | 62 | 1022.2 |
| 20260502040051 | 12 | 44 | 0.0 | 6.4 | 0.00 | 0.00 | 0.00 | 60 | 1022.4 |
| 20260502034552 | 13 | 30 | 1.6 | 8.0 | 0.00 | 0.00 | 0.00 | 57 | 1022.3 |
| 20260502033050 | 12 | 172 | 3.2 | 11.3 | 0.00 | 0.00 | 0.00 | 60 | 1022.3 |
| 20260502031606 | 11 | 0 | 0.0 | 3.2 | 0.00 | 0.00 | 0.00 | 64 | 1021.8 |
| 20260502030046 | 11 | 0 | 0.0 | 3.2 | 0.00 | 0.00 | 0.00 | 62 | 1021.8 |
| 20260502024551 | 11 | 239 | 0.0 | 4.8 | 0.00 | 0.00 | 0.00 | 62 | 1021.4 |
| 20260502023045 | 11 | 0 | 0.0 | 3.2 | 0.00 | 0.00 | 0.00 | 60 | 1021.2 |
| 20260502021541 | 12 | 9 | 1.6 | 6.4 | 0.00 | 0.00 | 0.00 | 59 | 1021.1 |
| 20260502020044 | 11 | 229 | 3.2 | 6.4 | 0.00 | 0.00 | 0.00 | 61 | 1020.9 |
| 20260502014540 | 11 | 9 | 3.2 | 4.8 | 0.00 | 0.00 | 0.00 | 63 | 1021.0 |